Location: Azul
(36.7830°S, 59.8500°W)
Time: 01:17:43
(UTC-03:00)

HuskySat-1 - Pass Details

Date: 23 October 2021
Orbit: 443 x 456 km, 51.6° (Epoch: 04 December)

Event Time Altitude Azimuth Distance (km) Brightness Sun altitude
Exits shadow 03:27:14 - 195° (SSW) 1,702 ? -28.3°
Reaches altitude 10° 03:27:38 10° 190° (S) 1,619 ? -28.2°
Maximum altitude 03:29:27 13° 160° (SSE) 1,425 ? -28.0°
Drops below altitude 10° 03:31:17 10° 130° (SE) 1,609 ? -27.7°
Sets 03:34:22 0° 101° (E) 2,474 ? -27.2°
